AO-07 1 07530U 74089B 23173.20326843 -.00000037 00000-0 54708-4 0 9996 2 07530 101.9467 159.9139 0012611 55.0481 317.1696 12.53664914224042 UO-11 1 14781U 84021B 23173.17897488 .00001642 00000-0 19882-3 0 9998 2 14781 97.6573 149.9157 0008161 174.2962 185.8348 14.84924105115881 AO-16 1 20439U 90005D 23173.76939993 .00000221 00000-0 97682-4 0 9994 2 20439 98.8828 164.1429 0010670 181.3138 304.8630 14.33113543745951 LO-19 1 20442U 90005G 23173.54632703 .00000226 00000-0 98711-4 0 9992 2 20442 98.8437 150.1761 0012093 157.8359 202.3349 14.33267247746174 HUBBLE 1 20580U 90037B 23173.54540131 .00004046 00000-0 21102-3 0 9996 2 20580 28.4683 232.3533 0002852 80.1581 28.3820 15.13320329622539 MET-2/21 1 22782U 93055A 23173.49051272 .00000081 00000-0 59466-4 0 9992 2 22782 82.5495 80.5572 0023127 32.0544 140.7350 13.83887376505459 AO-27 1 22825U 93061C 23173.73443800 .00000165 00000-0 81254-4 0 9999 2 22825 98.8402 216.7142 0009347 56.7046 303.5030 14.30312443551354 IO-26 1 22826U 93061D 23173.38678195 .00000175 00000-0 84529-4 0 9997 2 22826 98.8347 216.2240 0009705 44.4723 315.7236 14.30673748551554 FO-29 1 24278U 96046B 23172.99677316 .00000035 00000-0 69545-4 0 9992 2 24278 98.5284 150.8953 0351065 44.5512 318.3287 13.53147355325833 NOAA-15 1 25338U 98030A 23173.76879770 .00000292 00000-0 13951-3 0 9993 2 25338 98.6048 202.7301 0009242 300.9266 59.1005 14.26338637306053 GO-32 1 25397U 98043D 23173.13930368 .00000114 00000-0 69561-4 0 9996 2 25397 98.8690 130.6379 0002326 105.7217 254.4217 14.23880805296251 ISS 1 25544U 98067A 23173.82006554 .00016543 00000-0 29418-3 0 9992 2 25544 51.6435 300.6082 0004612 68.3678 94.1875 15.50288944402664 NO-44 1 26931U 01043C 23173.16325752 .00000180 00000-0 99988-4 0 9992 2 26931 67.0492 183.9768 0008102 271.5891 88.4282 14.30929472134457 SO-50 1 27607U 02058C 23173.51316357 .00001547 00000-0 22892-3 0 9997 2 27607 64.5542 248.6012 0068586 223.6576 135.9091 14.77338633103228 CO-55 1 27844U 03031E 23173.73495130 .00000435 00000-0 21336-3 0 9990 2 27844 98.6770 180.9100 0011042 107.4364 252.8022 14.22794544 36558 CO-57 1 27848U 03031J 23173.74795448 .00000384 00000-0 19219-3 0 9990 2 27848 98.6806 181.3366 0010783 120.8963 239.3276 14.22303619 36343 RS-22 1 27939U 03042A 23173.79679521 .00001563 00000-0 27858-3 0 9999 2 27939 98.2441 320.7992 0013671 116.8821 19.5562 14.68415533 55364 NOAA-18 1 28654U 05018A 23173.80212177 .00000257 00000-0 16163-3 0 9997 2 28654 98.9094 248.1653 0014226 8.8630 351.2791 14.12957143932363 CO-58 1 28895U 05043F 23172.64551388 .00001707 00000-0 32191-3 0 9993 2 28895 98.1546 304.6707 0017334 61.1523 299.1417 14.65687867941690 CO-65 1 32785U 08021C 23173.76234579 .00004235 00000-0 41894-3 0 9998 2 32785 97.7061 139.5973 0013846 85.9822 274.2979 14.92333441821724 AAUSAT2 1 32788U 08021F 23172.94092594 .00010256 00000-0 74549-3 0 9992 2 32788 97.5615 152.2529 0007156 357.1810 2.9374 15.04008240823926 DO-64 1 32789U 08021G 23173.57044858 .00067260 00000-0 18209-2 0 9990 2 32789 97.3011 195.0210 0008983 111.2776 248.9428 15.37397846828315 CO-66 1 32791U 08021J 23173.15260984 .00006049 00000-0 53256-3 0 9997 2 32791 97.6570 144.2841 0013386 43.1656 317.0613 14.96782899822486 RS-30 1 32953U 08025A 23173.75772486 .00000037 00000-0 19742-3 0 9995 2 32953 82.5033 313.6295 0020008 169.9733 190.1750 12.43125561684340 PRISM 1 33493U 09002B 23173.76713233 .00012846 00000-0 86766-3 0 9998 2 33493 98.2450 188.6760 0016727 34.9411 325.2909 15.06627657784591 NOAA-19 1 33591U 09005A 23173.70563934 .00000259 00000-0 16416-3 0 9995 2 33591 99.0987 219.7208 0013159 224.1120 135.9003 14.12774275740726 SRMSAT 1 37841U 11058D 23173.68406147 .00000459 00000-0 10707-3 0 9996 2 37841 19.9701 176.7898 0012043 92.2491 64.2167 14.10905227603809 HRBE 1 37855U 11061F 23173.77605561 .00040182 00000-0 12363-2 0 9992 2 37855 101.7064 138.6150 0117915 23.7159 336.9437 15.26932374637883 RS-40 1 38735U 12041C 23173.54835652 .00000021 00000-0 81002-4 0 9996 2 38735 82.4770 34.7484 0016519 286.8352 73.0916 12.42594623494474 ZACUBE-1 1 39417U 13066B 23173.68960723 .00003629 00000-0 42079-3 0 9992 2 39417 97.6857 135.1629 0052947 269.4372 90.0776 14.85042325518013 Delfi-N3xt 1 39428U 13066N 23173.06711072 .00003592 00000-0 51926-3 0 9997 2 39428 97.8335 97.7301 0110654 172.8378 187.4443 14.72649740513030 GOMX-1 1 39430U 13066Q 23173.66319437 .00002517 00000-0 44263-3 0 9997 2 39430 97.7790 64.4846 0144375 316.5933 42.3972 14.61877426510331 LO-74 1 39440U 13066AA 23173.78265847 .00004932 00000-0 63560-3 0 9990 2 39440 97.7729 122.3507 0075640 10.4527 349.8236 14.79481785516184 AO-73 1 39444U 13066AE 23173.37693643 .00004432 00000-0 49225-3 0 9995 2 39444 97.6720 137.4117 0051189 255.2312 104.3229 14.86749990517006 SPROUT 1 39770U 14029E 23173.62165285 .00022491 00000-0 16940-2 0 9993 2 39770 97.9900 301.0182 0005418 282.8291 77.2328 15.02494502492979 DTUSAT-2 1 40030U 14033W 23173.37474660 .00004891 00000-0 47426-3 0 9999 2 40030 97.9678 113.9787 0008970 274.9750 85.0445 14.93132207489288 EO-80 1 40032U 14033Y 23173.08243082 .00003969 00000-0 38594-3 0 9992 2 40032 97.9679 113.7003 0009084 278.3045 81.7144 14.93135840489221 HODOYOSHI-1 1 40299U 14070B 23173.71803315 .00012228 00000-0 37544-3 0 9991 2 40299 97.1928 236.2384 0008930 253.4055 106.6207 15.33830204479656 FIREBIRD FU3 1 40377U 15003B 23173.40687984 .00223059 00000-0 13098-2 0 9996 2 40377 99.0738 134.0778 0039436 178.3394 181.8004 15.76515238465470 FIREBIRD FU4 1 40378U 15003C 23173.79362395 .00238728 00000-0 13996-2 0 9991 2 40378 99.0753 134.9069 0039724 176.5696 183.5844 15.76496167465543 GRIFEX 1 40379U 15003D 23173.81874852 .00037418 00000-0 79995-3 0 9996 2 40379 99.0781 111.9343 0078336 250.7998 108.4754 15.41452358464256 XW-2C 1 40906U 15049H 23173.79371937 .00013475 00000-0 51614-3 0 9990 2 40906 97.4927 180.9486 0013263 136.5624 223.6662 15.26580335429254 XW-2D 1 40907U 15049J 23173.73991859 .00016677 00000-0 60094-3 0 9995 2 40907 97.4908 181.4419 0012537 130.3277 229.9060 15.28556480429331 LILACSAT-2 1 40908U 15049K 23173.75425598 .00006842 00000-0 32188-3 0 9996 2 40908 97.5241 176.7946 0014550 163.7016 196.4689 15.19793627428647 XW-2E 1 40909U 15049L 23173.78011728 .00035154 00000-0 91435-3 0 9994 2 40909 97.4514 187.7797 0010910 103.9556 256.2903 15.38777663430007 XW-2F 1 40910U 15049M 23173.78006867 .00034689 00000-0 92151-3 0 9992 2 40910 97.4606 187.0191 0011726 105.9161 254.3377 15.38120835429748 XW-2B 1 40911U 15049N 23173.73673681 .00016016 00000-0 58128-3 0 9992 2 40911 97.4886 181.8723 0012483 131.7633 228.4676 15.28329065429215 DCBB 1 40912U 15049P 23173.71435835 .00046565 00000-0 10031-2 0 9990 2 40912 97.4153 191.6051 0010205 74.3611 285.8763 15.44409165430465 IO-86 1 40931U 15052B 23167.61851844 .00001177 00000-0 73339-4 0 9991 2 40931 6.0000 90.5534 0013569 286.2419 73.6216 14.77239916417159 ATHENOXAT-1 1 41168U 15077C 23173.66210314 .00213732 00000-0 22666-2 0 9991 2 41168 14.9845 178.2998 0005727 161.2549 198.7990 15.61997954417175 ChubuSat-2 1 41338U 16012B 23173.18554979 .00003581 00000-0 24625-3 0 9992 2 41338 31.0009 185.8530 0012436 227.9110 132.0469 15.04035115403133 ChubuSat-3 1 41339U 16012C 23173.71174660 .00003505 00000-0 24179-3 0 9997 2 41339 31.0074 179.6117 0012375 240.3894 119.5510 15.03891767403205 Horyu-4 1 41340U 16012D 23172.62527493 .00007157 00000-0 44793-3 0 9995 2 41340 31.0027 154.7791 0011739 285.2226 74.7114 15.07961495403399 e-st@r-II 1 41459U 16025D 23173.84013696 .00036094 00000-0 10248-2 0 9999 2 41459 98.1854 15.7129 0106860 79.9254 281.4021 15.30497004393761 AAUSAT4 1 41460U 16025E 23173.53013901 .00135997 00000-0 16413-2 0 9998 2 41460 98.1576 28.3077 0054002 35.1520 325.3277 15.58508519394605 LO-87 1 41557U 16033B 23173.79515920 .00078960 00000-0 95520-3 0 9993 2 41557 97.3890 281.9098 0006436 124.8758 235.3104 15.60412615394501 NuSat2 1 41558U 16033C 23173.70042420 .00091276 00000-0 94631-3 0 9992 2 41558 97.4173 289.9748 0005516 119.7894 240.3915 15.64365362394831 Lapan A3 1 41603U 16040E 23173.77703293 .00002880 00000-0 12702-3 0 9992 2 41603 97.1649 199.0829 0011001 300.7680 59.2474 15.22496341388341 Pratham 1 41783U 16059A 23173.08071059 .00000907 00000-0 18034-3 0 9995 2 41783 97.8678 203.9769 0034517 85.4752 275.0393 14.63972091359690 TY-1 1 41844U 16066D 23173.66531160 .00066022 00000-0 99875-3 0 9991 2 41844 97.3658 193.1246 0008270 55.4963 304.7071 15.54434140368534 CAS-2T 1 41847U 16066G 23173.79963417 .00002396 00000-0 36341-3 0 9995 2 41847 98.5033 242.3261 0359839 180.4213 179.6726 14.39712567347614 EO-88 1 42017U 17008BX 23173.14074190 .00324495 00000-0 14010-2 0 9997 2 42017 97.2058 244.7445 0005004 238.9181 121.1598 15.84111706354258 CAS-4B 1 42759U 17034B 23173.78379953 .00009518 00000-0 47633-3 0 9998 2 42759 43.0160 84.5742 0009802 144.4514 215.6988 15.17527816332487 CAS-4A 1 42761U 17034D 23173.79988106 .00009785 00000-0 48917-3 0 9990 2 42761 43.0148 83.0140 0010659 145.3462 214.8083 15.17533945332494 NIUSat 1 42766U 17036B 23173.65557942 .00030263 00000-0 76482-3 0 9995 2 42766 97.1554 204.8398 0011820 88.4572 271.8028 15.39676902333452 Aalto 1 1 42775U 17036L 23173.08821587 .00019470 00000-0 56111-3 0 9995 2 42775 97.1510 202.9900 0011762 91.2363 269.0229 15.35696480333278 URSA MAIOR 1 42776U 17036M 23173.66558321 .00024277 00000-0 65556-3 0 9997 2 42776 97.1519 204.9049 0011280 87.2660 272.9876 15.37688250333431 Max Valier Sat 1 42778U 17036P 23173.36823452 .00025031 00000-0 64529-3 0 9994 2 42778 97.1536 208.0897 0010198 89.0787 271.1628 15.39123710333528 Pegasus 1 42784U 17036V 23173.32222805 .00047158 00000-0 90748-3 0 9998 2 42784 97.1454 210.6745 0008251 87.0841 273.1354 15.47726118333776 SUCHAI 1 1 42788U 17036Z 23172.66504220 .00082470 00000-0 10821-2 0 9991 2 42788 97.1423 213.8660 0006315 92.5821 267.6158 15.58247843333994 SKCUBE 1 42789U 17036AA 23172.81992585 .00056631 00000-0 91963-3 0 9991 2 42789 97.1418 212.3911 0007496 86.3828 273.8283 15.52514419333832 VENTA 1 1 42791U 17036AC 23172.62814748 .00040201 00000-0 76910-3 0 9998 2 42791 97.1470 211.1791 0007660 86.9699 273.2429 15.47934209333722 Robusta 1B 1 42792U 17036AD 23173.09339844 .00074206 00000-0 10518-2 0 9993 2 42792 97.1406 213.9376 0005745 88.9788 271.2125 15.56202599333972 D-SAT 1 42794U 17036AF 23172.55141098 .00002859 00000-0 22969-3 0 9996 2 42794 97.4646 164.4079 0114701 287.4860 71.3852 14.95771283326581 TechnoSat 1 42829U 17042E 23173.81682285 .00003042 00000-0 29239-3 0 9992 2 42829 97.3886 10.9233 0012859 200.4187 159.6521 14.93655042323335 AO-91 1 43017U 17073E 23173.16890251 .00009408 00000-0 65100-3 0 9997 2 43017 97.6297 57.3086 0234540 53.1396 309.1073 14.86188875301925 PICSAT 1 43132U 18004X 23173.50223653 .00104216 00000-0 13083-2 0 9999 2 43132 97.3275 256.8963 0004000 122.7274 237.4369 15.59359460303373 AO-92 1 43137U 18004AC 23173.18197993 .00036449 00000-0 73513-3 0 9992 2 43137 97.3283 252.4282 0006627 122.9777 237.2110 15.46430459303073 TianYi 2 1 43155U 18008A 23173.76050974 .00021170 00000-0 82782-3 0 9990 2 43155 97.2971 226.1466 0011131 288.2775 71.7252 15.25811647299507 Zhou Enlai 1 43156U 18008B 23173.76833147 .00024259 00000-0 93142-3 0 9995 2 43156 97.3018 226.2771 0008808 288.6341 71.3941 15.26415421299435 TianYi 6 1 43158U 18008D 23173.71702767 .00016325 00000-0 69194-3 0 9990 2 43158 97.3022 223.1403 0008739 294.4597 65.5728 15.23178361299266 S-Net D 1 43186U 18014G 23173.31773614 .00003258 00000-0 26259-3 0 9999 2 43186 97.6283 77.0289 0016589 145.0632 215.1684 15.00493917294328 S-Net B 1 43187U 18014H 23173.71899660 .00003717 00000-0 29892-3 0 9990 2 43187 97.6275 77.3500 0016871 141.7439 218.4985 15.00489585294383 S-Net A 1 43188U 18014J 23173.71910626 .00003745 00000-0 30112-3 0 9995 2 43188 97.6280 77.4384 0016870 141.9150 218.3270 15.00492321294380 S-Net C 1 43189U 18014K 23173.18789243 .00003389 00000-0 27303-3 0 9998 2 43189 97.6274 76.8053 0017261 139.0251 221.2273 15.00475191292857 Shaonian Xing 1 43199U 18015H 23173.71431608 .00232886 00000-0 12321-2 0 9997 2 43199 97.5422 333.9682 0005413 185.9420 174.1784 15.79929970300691 CubeBel-1 1 43666U 18083E 23173.73303409 .00037701 00000-0 99116-3 0 9997 2 43666 97.3788 205.3660 0011378 104.9703 255.2802 15.38427014258054 Changshagaoxin 1 43669U 18083H 23173.78015842 .00029875 00000-0 88232-3 0 9996 2 43669 97.3780 200.0140 0009418 105.2279 255.0006 15.34868971257801 Ten-Koh 1 43677U 18084G 23173.10773247 .00002440 00000-0 23962-3 0 9990 2 43677 98.0145 313.0856 0016094 129.8136 230.4502 14.93061983252797 PO-101 1 43678U 18084H 23173.74980572 .00002129 00000-0 20801-3 0 9995 2 43678 98.0239 317.8309 0010493 137.7141 222.4889 14.93450637253099 QO-100 1 43700U 18090A 23173.31438097 .00000151 00000-0 00000+0 0 9999 2 43700 0.0180 24.9385 0001537 101.2117 283.0579 1.00272787 16987 Reaktor Hello World 1 43743U 18096AA 23173.71402867 .00078001 00000-0 98824-3 0 9996 2 43743 97.3171 260.8873 0010167 160.7624 199.4019 15.59158750255030 MinXSS-2 1 43758U 18099A 23173.18932946 .00007400 00000-0 57158-3 0 9992 2 43758 97.6036 237.1855 0018426 106.4307 253.8945 15.01691462248491 AO-95 1 43770U 18099N 23173.42921045 .00005352 00000-0 43538-3 0 9992 2 43770 97.5689 234.8246 0013634 121.3227 238.9333 14.99891920248390 RANGE-B 1 43772U 18099Q 23173.62775014 .00007871 00000-0 60967-3 0 9992 2 43772 97.5759 237.8051 0009358 85.5695 274.6598 15.01662216248483 RANGE-A 1 43773U 18099R 23173.74430564 .00003834 00000-0 32442-3 0 9996 2 43773 97.5628 233.1982 0013621 98.0176 262.2593 14.98536191248397 MOVE-II 1 43780U 18099Y 23173.16095982 .00009701 00000-0 70792-3 0 9990 2 43780 97.5709 237.0824 0010791 130.7748 229.4416 15.03849051248485 SNUSat 2 1 43782U 18099AA 23173.72822762 .00006561 00000-0 53337-3 0 9995 2 43782 97.5748 235.6265 0015216 91.8404 268.4563 14.99816780248467 SnugLite 1 43784U 18099AC 23173.67615406 .00005031 00000-0 40435-3 0 9992 2 43784 97.5714 235.2585 0010690 105.9037 254.3365 15.00412927248498 ITASat 1 1 43786U 18099AE 23173.43252800 .00004538 00000-0 37309-3 0 9990 2 43786 97.5728 235.8611 0014071 109.4230 250.8516 14.99558890248432 EAGLET 1 1 43790U 18099AJ 23172.74118484 .00003431 00000-0 28621-3 0 9995 2 43790 97.5769 235.6548 0014404 105.5221 254.7594 14.99148872248069 ESEO 1 43792U 18099AL 23172.77065415 .00002253 00000-0 19702-3 0 9996 2 43792 97.5678 234.1415 0014116 109.3039 250.9711 14.97659374248078 CSIM 1 43793U 18099AM 23173.12186592 .00010069 00000-0 72446-3 0 9995 2 43793 97.5766 238.3709 0017615 110.5980 249.7137 15.04292253248329 Astrocast 0.1 1 43798U 18099AS 23173.13516452 .00010245 00000-0 76966-3 0 9990 2 43798 97.5825 237.7239 0012685 89.8919 270.3759 15.02718275248519 JO-97 1 43803U 18099AX 23173.71561761 .00007057 00000-0 55692-3 0 9994 2 43803 97.5702 236.1406 0015499 76.0938 284.2010 15.00923981248529 Suomi 100 1 43804U 18099AY 23173.71342446 .00006724 00000-0 53491-3 0 9997 2 43804 97.5667 235.9377 0020197 91.2839 269.0699 15.00566486248521 Al Farabi 2 1 43805U 18099AZ 23173.11668765 .00008000 00000-0 60846-3 0 9998 2 43805 97.5616 236.3958 0013490 89.1928 271.0843 15.02315094248498 CHOMPTT 1 43855U 18104G 23173.36857034 .00023748 00000-0 58065-3 0 9992 2 43855 85.0296 162.6314 0008591 305.8146 54.2307 15.40635538251379 ISAT 1 43879U 18111D 23172.95731982 .00007363 00000-0 55810-3 0 9993 2 43879 97.6420 77.3444 0015068 143.6394 216.5857 15.02457464243034 UWE-4 1 43880U 18111E 23173.68574843 .00007332 00000-0 55781-3 0 9990 2 43880 97.6340 78.7767 0018912 152.2667 207.9570 15.02267865243197 Sparrow 1 43881U 18111F 23173.69568284 .00007918 00000-0 59441-3 0 9991 2 43881 97.6473 79.4245 0011108 182.2947 177.8229 15.02839776243213 Lume 1 1 43908U 18111AJ 23173.64452694 .00038392 00000-0 76012-3 0 9996 2 43908 97.1385 56.8248 0013198 168.8022 191.3525 15.46885674250233 FO-99 1 43937U 19003F 23173.06130180 .00057843 00000-0 90522-3 0 9992 2 43937 97.0843 200.2092 0010234 244.2150 115.8049 15.53509847246807 AstroCast 0.2 1 44083U 19018F 23173.71367015 .00059179 00000-0 10197-2 0 9995 2 44083 97.2647 233.5459 0005288 204.2992 155.8011 15.50853291235277 AISTechSat 3 1 44103U 19018AB 23173.73570812 .00030319 00000-0 72528-3 0 9993 2 44103 97.2519 232.1545 0007684 242.5968 117.4498 15.41389824235368 AISat 1 1 44104U 19018AC 23173.76541288 .00022391 00000-0 43102-3 0 9999 2 44104 97.3739 265.2101 0039503 236.3198 123.4283 15.47029017236585 Prox-1 1 44339U 19036A 23173.22442561 .00006500 00000-0 12966-2 0 9991 2 44339 24.0022 12.5152 0010072 321.2053 38.7716 14.59500439212420 Move-IIb 1 44398U 19038N 23173.42304101 .00058501 00000-0 14031-2 0 9990 2 44398 97.6593 156.4863 0010122 263.6958 96.3135 15.41139747219479 SONATE 1 44400U 19038Q 23173.16433334 .00010349 00000-0 46207-3 0 9995 2 44400 97.6840 150.9120 0018589 296.9461 62.9875 15.21409996218996 BeeSat 9 1 44412U 19038AC 23173.70431332 .00027303 00000-0 93116-3 0 9993 2 44412 97.6745 154.5245 0012667 286.5608 73.4241 15.30250974219007 JAISAT-1 1 44419U 19038F 23172.93378888 .00022682 00000-0 76829-3 0 9997 2 44419 97.6735 154.8130 0011880 285.8317 74.1613 15.30521636219269 Taurus 1 1 44530U 19059C 23173.80258946 .00005191 00000-0 13457-2 0 9996 2 44530 98.5560 281.6894 0014049 80.0171 280.2607 14.50152893199455 Duchifat 3 1 44854U 19089C 23173.77505797 .00009494 00000-0 63693-3 0 9991 2 44854 36.9628 57.8905 0009212 351.5140 8.5447 15.06341886193674 OPS-SAT 1 44878U 19092F 23173.79989248 .00034958 00000-0 10311-2 0 9991 2 44878 97.4748 2.6207 0010279 114.9732 245.2579 15.34869253194650 TO-108 1 44881U 19093C 23173.76366395 .00001200 00000-0 15548-3 0 9997 2 44881 97.8616 252.1199 0015968 62.9851 297.2990 14.82552942189629 FloripaSat 1 1 44885U 19093G 23173.80302040 .00004269 00000-0 49526-3 0 9994 2 44885 97.8679 254.9022 0014774 65.4200 294.8553 14.85864355189789 RS-44 1 44909U 19096E 23172.99175430 .00000026 00000-0 58301-4 0 9993 2 44909 82.5218 344.7521 0217579 175.4624 184.8520 12.79721488162826 BY70-2 1 45857U 20042B 23173.78192085 .00022326 00000-0 22744-2 0 9999 2 45857 97.9253 253.6990 0007353 354.9629 5.1513 14.90689236160376 UPMSat 2 1 46276U 20061E 23172.74966966 .00008761 00000-0 36939-3 0 9997 2 46276 97.3459 240.2354 0000921 49.6235 310.5082 15.23544157154988 AmicalSat 1 46287U 20061R 23173.73786151 .00014858 00000-0 68770-3 0 9997 2 46287 97.3992 240.1420 0003416 88.0333 272.1294 15.20218117154555 SALSAT 1 46495U 20068K 23172.83279536 .00004036 00000-0 26739-3 0 9995 2 46495 97.7704 120.8847 0017405 103.1112 257.2059 15.07774126149778 CAPE 3 1 47309U 21002A 23172.84724818 .00030967 00000-0 73564-3 0 9998 2 47309 60.6776 42.0364 0011475 198.7644 161.3031 15.41477095135000 AO-109 1 47311U 21002C 23173.76531296 .00028863 00000-0 73839-3 0 9996 2 47311 60.6813 37.0941 0011016 187.2162 172.8776 15.39262369135151 ExoCube 2 1 47319U 21002L 23173.05306189 .00024445 00000-0 64418-3 0 9992 2 47319 60.6794 42.0121 0011450 191.9575 168.1249 15.38426745134965 UVSQ-SAT 1 47438U 21006AB 23172.69156735 .00015768 00000-0 64161-3 0 9990 2 47438 97.3833 229.7332 0011026 72.7276 287.5167 15.24544274133337 YUSAT 1 1 47439U 21006AC 23172.70981675 .00020404 00000-0 76849-3 0 9991 2 47439 97.3839 230.5248 0010185 71.6855 288.5491 15.27078435133386 SOMP 2b 1 47445U 21006AJ 23173.40468344 .00014773 00000-0 61446-3 0 9998 2 47445 97.3798 229.6802 0010942 74.9017 285.3430 15.23819124133415 IDEASSat 1 47458U 21006AX 23173.71657144 .00015832 00000-0 67008-3 0 9991 2 47458 97.3893 230.7689 0010216 73.4789 286.7570 15.23221605133449 CubeSX-Sirius-HSE 1 47951U 21022V 23173.76221114 .00010421 00000-0 58272-3 0 9998 2 47951 97.4964 71.0265 0017289 320.4872 39.5098 15.13536323123878 CubeSX-HSE 1 47952U 21022W 23173.66909476 .00011280 00000-0 62930-3 0 9992 2 47952 97.4964 70.9823 0017291 319.7853 40.2098 15.13597952123863 KSU-Cubesat 1 47954U 21022Y 23173.25547712 .00010646 00000-0 58023-3 0 9993 2 47954 97.4973 70.9583 0016505 320.4463 39.5563 15.14458818123542 GRBAlpha 1 47959U 21022AD 23173.72155685 .00010912 00000-0 60755-3 0 9995 2 47959 97.4969 71.1176 0017066 320.1929 39.8050 15.13682779122693 Orbicraft-Zorkiy 1 47960U 21022AE 23173.74244983 .00012268 00000-0 66940-3 0 9997 2 47960 97.4994 71.5726 0016728 318.9922 41.0051 15.14378436123409 STECCO 1 47962U 21022AG 23173.79189105 .00021926 00000-0 10062-2 0 9992 2 47962 97.4968 74.0455 0010641 308.1203 51.9072 15.20385687122898 DO-111 1 47963U 21022AH 23173.69110822 .00350313 00000-0 32902-2 0 9994 2 47963 97.4926 82.6701 0006032 165.9263 194.2166 15.66045511123453 MO-110 1 47964U 21022AJ 23172.72016630 .00019860 00000-0 89092-3 0 9992 2 47964 97.4986 73.5849 0012491 305.8822 54.1253 15.21167917122764 FEES 1 48082U 21022AL 23172.71896860 .00035177 00000-0 12972-2 0 9995 2 48082 97.4974 74.8772 0007460 298.4657 61.5830 15.27685603122558 TUBIN 1 48900U 21059X 23173.75288532 .00008771 00000-0 41574-3 0 9991 2 48900 97.6013 307.3869 0007800 259.4851 100.5505 15.19520816110022 IT-SPINS 1 49017U 21013G 23173.66157240 .00036200 00000-0 81802-3 0 9998 2 49017 51.5923 51.8738 0005203 357.1001 2.9953 15.42813551110552 LEDSAT 1 49069U 21073D 23173.73774407 .00011102 00000-0 60524-3 0 9991 2 49069 97.4819 244.5175 0025448 101.5509 258.8582 15.14271237101744 CUTE 1 49263U 21088D 23173.66025565 .00010541 00000-0 67322-3 0 9998 2 49263 97.5434 239.3644 0016708 240.1841 119.7727 15.08723258 95112 TeikyoSat 4 1 49396U 21102B 23173.12707731 .00001712 00000-0 13376-3 0 9995 2 49396 97.5135 224.9690 0017396 69.4785 290.8306 15.02270516 88519 Z-Sat 1 49399U 21102E 23173.73712216 .00003952 00000-0 28188-3 0 9994 2 49399 97.4840 226.6639 0023441 54.3974 305.9432 15.04891818 88724 KOSEN 1 1 49402U 21102H 23173.67193315 .00004933 00000-0 33479-3 0 9994 2 49402 97.4767 227.1199 0021925 43.7050 316.5909 15.06660542 88789 HO-113 1 50466U 21131B 23173.80219802 .00000731 00000-0 25138-3 0 9998 2 50466 98.5520 255.3297 0005418 117.9915 242.1821 14.38932215 78166 Tevel-3 1 50988U 22002E 23173.69022967 .00021456 00000-0 85248-3 0 9991 2 50988 97.4323 240.6179 0007622 203.3865 156.7027 15.25309626 79602 Tevel-8 1 50989U 22002F 23173.70921816 .00021471 00000-0 85473-3 0 9992 2 50989 97.4340 240.6965 0007704 201.8890 158.2019 15.25243684 79606 Tevel-5 1 50998U 22002Q 23173.69746677 .00022726 00000-0 88008-3 0 9991 2 50998 97.4318 241.0148 0008964 199.1892 160.9010 15.26143713 79636 Tevel-6 1 50999U 22002R 23173.69599083 .00022740 00000-0 88060-3 0 9993 2 50999 97.4317 241.0081 0008961 199.1004 160.9900 15.26143894 79632 Tevel-1 1 51013U 22002AF 23173.63459236 .00022328 00000-0 88816-3 0 9991 2 51013 97.4318 240.5048 0007589 202.9631 157.1269 15.25262513 79592 Grizu-263a 1 51025U 22002AT 23173.46327556 .00090531 00000-0 18145-2 0 9992 2 51025 97.4463 246.1604 0009020 196.2050 163.8912 15.46350870 79875 NO-116 1 51031U 22002AZ 23173.14195318 .00035736 00000-0 11186-2 0 9997 2 51031 97.4443 243.0876 0009630 201.9774 158.1056 15.32984562 79660 IRIS-A 1 51044U 22002BN 23173.73706709 .00011164 00000-0 52834-3 0 9993 2 51044 97.4337 239.1085 0007608 210.2019 149.8778 15.19498623 79506 Tevel-7 1 51062U 22002CG 23173.71014963 .00021732 00000-0 86456-3 0 9994 2 51062 97.4336 240.6704 0007671 201.5207 158.5709 15.25262858 79600 Tevel-4 1 51063U 22002CH 23173.71641564 .00021752 00000-0 86673-3 0 9991 2 51063 97.4337 240.6599 0007651 201.8293 158.2620 15.25210214 79608 Tevel-2 1 51069U 22002CP 23173.69204880 .00022221 00000-0 88257-3 0 9992 2 51069 97.4319 240.5907 0007663 203.0825 157.0070 15.25313611 79605 DELFI-PQ 1 51074U 22002CU 23173.14618933 .00042303 00000-0 11866-2 0 9990 2 51074 97.4583 245.5085 0009371 225.6191 134.4286 15.36412760 79762 SO-115 1 51080U 22002DA 23173.68445656 .00024589 00000-0 87262-3 0 9996 2 51080 97.4601 244.4300 0009849 232.2370 127.7978 15.29003151 79733 SO-114 1 51081U 22002DB 23172.42841022 .00024524 00000-0 86731-3 0 9994 2 51081 97.4593 243.1434 0009956 236.9794 123.0490 15.29116565 79549 OreSat0 1 52017U 22026K 23173.75137510 .00020980 00000-0 83348-3 0 9990 2 52017 97.5084 176.1583 0024003 68.0127 292.3658 15.25074337 70395 Planetum 1 1 52738U 22057G 23172.82198757 .00012923 00000-0 59511-3 0 9994 2 52738 97.5393 288.7797 0006099 340.1352 19.9644 15.20418995 59363 Foresail-1 1 52766U 22057AL 23173.79058341 .00010389 00000-0 49099-3 0 9990 2 52766 97.5513 290.6437 0010847 314.2185 45.8157 15.19543869 59536 SNUGLITE 2 1 52899U 22065F 23172.95018544 .00001256 00000-0 27515-3 0 9996 2 52899 98.0701 317.6593 0007688 192.5268 167.5743 14.59320365 51553 CTIM 1 52950U 22074G 23173.75824480 .00062441 00000-0 13436-2 0 9996 2 52950 44.9990 328.1508 0014960 266.2345 93.6833 15.43737059 54468 IO-117 1 53106U 22080B 23172.41016717 -.00000003 00000-0 00000-0 0 9993 2 53106 70.1617 318.2520 0008546 184.7855 175.2724 6.42556995 22026 AstroBioCubeSat 1 53107U 22080C 23025.30817895 -.00000003 00000-0 00000-0 0 9995 2 53107 70.1710 9.4734 0013545 210.3158 149.6718 6.42110537 12478 SelfieSat 1 53951U 22057BC 23173.76955217 .00018761 00000-0 81907-3 0 9998 2 53951 97.5441 290.3818 0007750 325.0739 34.9988 15.22153203 59531 FO-118 1 54684U 22167C 23173.75987653 .00011928 00000-0 65629-3 0 9993 2 54684 97.5637 311.2987 0012381 318.8964 41.1333 15.14144307 29524 KILICSAT 1 56181U 23054D 23173.76757243 .00013625 00000-0 58505-3 0 9995 2 56181 97.4038 68.5705 0010204 28.0370 332.1414 15.22765806 11026 SSS-2B 1 56184U 23054G 23173.76158881 .00014067 00000-0 60054-3 0 9994 2 56184 97.4100 68.6349 0011508 27.0582 333.1252 15.22944430 11029 CIRBE 1 56188U 23054L 23172.95710002 .00013900 00000-0 58566-3 0 9997 2 56188 97.4052 67.8344 0010281 24.8006 335.3723 15.23403556 10901 INSPIRE-Sat 7 1 56211U 23054AK 23173.67806049 .00017967 00000-0 71803-3 0 9997 2 56211 97.4077 68.7264 0014111 2.3846 357.7456 15.25086099 11021 RoseyCubesat 1 1 56212U 23054AL 23173.27655638 .00018462 00000-0 73247-3 0 9995 2 56212 97.4082 68.3526 0014472 3.0104 357.1218 15.25318071 10960 ARKSAT 1 1 56311U 98067VC 23173.76502987 .00076042 00000-0 10001-2 0 9999 2 56311 51.6386 299.0877 0002826 93.5886 266.5429 15.57790162 9237 AuroraSat 1 56312U 98067VD 23172.66332565 .00080538 00000-0 10284-2 0 9999 2 56312 51.6379 304.4764 0002203 74.3631 285.7605 15.58552927 9099 Ex-Alta 2 1 56313U 98067VE 23173.57274959 .00071244 00000-0 93859-3 0 9997 2 56313 51.6370 300.0498 0002773 90.6771 269.4539 15.57772764 9227 LightCube 1 56314U 98067VF 23173.69354369 .00086206 00000-0 11017-2 0 9994 2 56314 51.6375 299.3554 0003679 54.2213 305.9121 15.58496951 9279 NEUDOSE 1 56315U 98067VG 23173.60911268 .00052331 00000-0 74158-3 0 9991 2 56315 51.6382 300.2909 0005035 83.6286 276.5279 15.55932710 9203 YukonSat 1 56316U 98067VH 23173.72177270 .00061374 00000-0 83801-3 0 9994 2 56316 51.6378 299.5446 0004302 74.4598 285.6869 15.56871332 9248 SNIPE 4 1 56744U 23072B 23173.71621728 .00006480 00000-0 43148-3 0 9991 2 56744 97.5517 0.5102 0008218 192.1995 167.9035 15.07426877 4265 SNIPE 2 1 56745U 23072C 23173.71372943 .00006394 00000-0 42428-3 0 9998 2 56745 97.5526 0.5165 0008458 195.6306 164.4662 15.07561722 4262 /EX